Weather History for West Plains, MO

Change the Weather History Date:

Sunday, December 23, 2012

  Actual Average Record
Temperature  
Mean Temperature 50 °F 35 °F  
Max Temperature 61 °F 45 °F 68 °F (1996)
Min Temperature 39 °F 24 °F -12 °F (1989)
Degree Days  
Heating Degree Days 15 30  
Month to date heating degree days 442 647  
Since 1 July heating degree days 1386 1499  
Cooling Degree Days 0 0  
Month to date cooling degree days 0 0  
Year to date cooling degree days 1739 1354  
Moisture  
Dew Point 36 °F    
Average Humidity 59    
Maximum Humidity 80    
Minimum Humidity 37    
Precipitation  
Precipitation 0.00 in 0.10 in 2.20 in (1979)
Month to date precipitation 1.80 3.02  
Year to date precipitation 31.72 45.60  
Sea Level Pressure  
Sea Level Pressure 29.89 in    
Wind  
Wind Speed 4 mph (SSW)    
Max Wind Speed 13 mph    
Max Gust Speed 17 mph    
Visibility 10 miles    
Events      
T = Trace of Precipitation, MM = Missing Value Source: NWS Daily Summary

Daily Weather History Graph

Daily Weather History Graph

Search for Another Location

Airport:

Trip Planner

Search our weather history database for the weather conditions in past years. The results will help you decide how hot, cold, wet, or windy it might be!

Date:

Astronomy

Dec. 23, 2012 Rise Set
Actual Time 7:18 AM CST 4:56 PM CST
Civil Twilight 6:49 AM CST 5:25 PM CST
Nautical Twilight 6:16 AM CST 5:57 PM CST
Astronomical Twilight 5:44 AM CST 6:29 PM CST
Moon 1:44 PM CST (12/23) 3:04 AM CST (12/23)
Length of Visible Light 10h 36m
Length of Day
9h 38m
Waxing Gibbous, 82% of the Moon is Illuminated
Dec 23
Waxing Gibbous
Dec 28
Full
Jan 4
Last Quarter
Jan 11
New
Jan 18
First Quarter

Hourly Weather History & Observations

Time (CST) Temp. Windchill Dew Point Humidity Pressure Visibility Wind Dir Wind Speed Gust Speed Precip Events Conditions
12:53 AM 45.0 °F 41.2 °F 21.0 °F 39% 29.99 in 10.0 mi SW 6.9 mph - N/A   Clear
1:53 AM 45.0 °F 41.8 °F 21.0 °F 39% 29.98 in 10.0 mi SW 5.8 mph - N/A   Clear
2:53 AM 43.0 °F - 21.0 °F 42% 29.97 in 10.0 mi Calm Calm - N/A   Clear
3:53 AM 42.1 °F 40.2 °F 21.9 °F 45% 29.96 in 10.0 mi SSW 3.5 mph - N/A   Clear
4:53 AM 41.0 °F - 21.9 °F 47% 29.96 in 10.0 mi Calm Calm - N/A   Clear
5:53 AM 41.0 °F 39.0 °F 24.1 °F 51% 29.96 in 10.0 mi South 3.5 mph - N/A   Clear
6:53 AM 44.1 °F 41.5 °F 28.0 °F 53% 29.96 in 10.0 mi SSW 4.6 mph - N/A   Clear
7:53 AM 44.1 °F 41.5 °F 28.9 °F 55% 29.96 in 10.0 mi South 4.6 mph - N/A   Clear
8:53 AM 46.9 °F - 32.0 °F 56% 29.96 in 10.0 mi SSW 4.6 mph - N/A   Clear
9:53 AM 51.1 °F - 37.0 °F 59% 29.96 in 10.0 mi SSW 6.9 mph - N/A   Clear
11:53 AM 57.9 °F - 44.1 °F 60% 29.90 in 10.0 mi West 8.1 mph - N/A   Mostly Cloudy
12:53 PM 57.9 °F - 43.0 °F 58% 29.86 in 10.0 mi West 6.9 mph - N/A   Mostly Cloudy
1:53 PM 59.0 °F - 43.0 °F 55% 29.83 in 10.0 mi WSW 4.6 mph - N/A   Mostly Cloudy
2:53 PM 60.1 °F - 43.0 °F 53% 29.83 in 10.0 mi SW 4.6 mph - N/A   Scattered Clouds
3:53 PM 60.1 °F - 43.0 °F 53% 29.82 in 10.0 mi SSE 3.5 mph - N/A   Scattered Clouds
4:53 PM 55.0 °F - 42.1 °F 62% 29.83 in 10.0 mi Calm Calm - N/A   Clear
5:53 PM 52.0 °F - 43.0 °F 71% 29.83 in 10.0 mi Calm Calm - N/A   Overcast
6:53 PM 53.1 °F - 43.0 °F 69% 29.84 in 10.0 mi SE 3.5 mph - N/A   Mostly Cloudy
7:53 PM 52.0 °F - 43.0 °F 71% 29.84 in 10.0 mi South 4.6 mph - N/A   Overcast
8:53 PM 52.0 °F - 45.0 °F 77% 29.83 in 10.0 mi SSE 4.6 mph - N/A   Overcast
9:53 PM 51.1 °F - 45.0 °F 80% 29.81 in 10.0 mi South 3.5 mph - N/A   Overcast
10:53 PM 50.0 °F - 45.0 °F 83% 29.81 in 10.0 mi South 3.5 mph - N/A   Overcast
11:53 PM 50.0 °F - 46.0 °F 86% 29.81 in 9.0 mi WSW 3.5 mph - N/A   Overcast